Weather History for Gunnison, CO

Change the Weather History Date:

Monday, June 17, 2013

  Actual Average Record
Temperature  
Mean Temperature 60 °F -  
Max Temperature 77 °F 72 °F 82 °F (2002)
Min Temperature 42 °F 37 °F 33 °F (2014)
Degree Days  
Heating Degree Days 6    
Growing Degree Days 10 (Base 50)    
Moisture  
Dew Point 33 °F    
Average Humidity 41    
Maximum Humidity 76    
Minimum Humidity 13    
Precipitation  
Precipitation 0.03 in - - ()
Sea Level Pressure  
Sea Level Pressure 30.32 in    
Wind  
Wind Speed 7 mph (NW)    
Max Wind Speed 23 mph    
Max Gust Speed 30 mph    
Visibility 10 miles    
Events      
Averages and records for this station are not official NWS values.
T = Trace of Precipitation, MM = Missing Value Source: NWS Daily Summary

Daily Weather History Graph

Daily Weather History Graph

Search for Another Location

Airport:

Trip Planner

Search our weather history database for the weather conditions in past years. The results will help you decide how hot, cold, wet, or windy it might be!

Date:

Astronomy

Jun. 17, 2013 Rise Set
Actual Time 5:43 AM MDT 8:34 PM MDT
Civil Twilight 5:11 AM MDT 9:06 PM MDT
Nautical Twilight 4:31 AM MDT 9:46 PM MDT
Astronomical Twilight 3:45 AM MDT 10:32 PM MDT
Moon 2:19 PM MDT (6/17) 1:16 AM MDT (6/17)
Length of Visible Light 15h 54m
Length of Day
14h 51m
First Quarter, 61% of the Moon is Illuminated
Jun 17
First Quarter
Jun 23
Full
Jun 29
Last Quarter
Jul 8
New
Jul 15
First Quarter

Hourly Weather History & Observations

Time (MDT) Temp. Windchill Dew Point Humidity Pressure Visibility Wind Dir Wind Speed Gust Speed Precip Events Conditions
12:15 AM 57.2 °F - 39.2 °F 51% 30.35 in 10.0 mi North 9.2 mph - N/A   Partly Cloudy
12:35 AM 55.4 °F - 39.2 °F 54% 30.35 in 10.0 mi North 9.2 mph - N/A   Scattered Clouds
12:55 AM 55.4 °F - 39.2 °F 54% 30.36 in 10.0 mi NNE 3.5 mph - N/A   Clear
1:15 AM 55.4 °F - 39.2 °F 54% 30.37 in 10.0 mi North 5.8 mph - N/A   Scattered Clouds
1:35 AM 53.6 °F - 39.2 °F 58% 30.34 in 10.0 mi NNE 10.4 mph - N/A   Mostly Cloudy
1:55 AM 51.8 °F - 39.2 °F 62% 30.36 in 10.0 mi North 8.1 mph - N/A   Partly Cloudy
2:15 AM 51.8 °F - 39.2 °F 62% 30.35 in 10.0 mi ENE 9.2 mph - N/A   Scattered Clouds
2:35 AM 51.8 °F - 39.2 °F 62% 30.36 in 10.0 mi North 3.5 mph - N/A   Scattered Clouds
2:55 AM 51.8 °F - 37.4 °F 58% 30.35 in 10.0 mi NNE 9.2 mph - N/A   Scattered Clouds
3:35 AM 50.0 °F - 37.4 °F 62% 30.35 in 10.0 mi North 6.9 mph - N/A   Clear
3:55 AM 48.2 °F - 37.4 °F 66% 30.35 in 10.0 mi NNE 5.8 mph - N/A   Clear
4:15 AM 48.2 °F - 37.4 °F 66% 30.36 in 10.0 mi North 8.1 mph - N/A   Clear
4:35 AM 46.4 °F 42.9 °F 37.4 °F 71% 30.36 in 10.0 mi North 6.9 mph - N/A   Clear
4:55 AM 46.4 °F 44.3 °F 37.4 °F 71% 30.36 in 10.0 mi NE 4.6 mph - N/A   Clear
5:15 AM 44.6 °F 43.1 °F 37.4 °F 76% 30.37 in 10.0 mi NE 3.5 mph - N/A   Clear
5:35 AM 44.6 °F - 35.6 °F 71% 30.37 in 10.0 mi Calm Calm - N/A   Clear
5:55 AM 44.6 °F 43.1 °F 35.6 °F 71% 30.37 in 10.0 mi NE 3.5 mph - N/A   Clear
6:15 AM 42.8 °F - 35.6 °F 76% 30.38 in 10.0 mi Calm Calm - N/A   Clear
6:55 AM 44.6 °F - 37.4 °F 76% 30.38 in 10.0 mi Calm Calm - N/A   Clear
7:15 AM 46.4 °F 45.2 °F 37.4 °F 71% 30.38 in 10.0 mi WSW 3.5 mph - N/A   Clear
7:35 AM 48.2 °F - 37.4 °F 66% 30.39 in 10.0 mi Calm Calm - N/A   Clear
7:55 AM 48.2 °F - 37.4 °F 66% 30.39 in 10.0 mi Calm Calm - N/A   Clear
8:15 AM 51.8 °F - 37.4 °F 58% 30.39 in 10.0 mi Calm Calm - N/A   Clear
8:35 AM 51.8 °F - 39.2 °F 62% 30.39 in 10.0 mi Calm Calm - N/A   Clear
8:55 AM 53.6 °F - 39.2 °F 58% 30.39 in 10.0 mi Calm Calm - N/A   Clear
9:15 AM 57.2 °F - 37.4 °F 48% 30.38 in 10.0 mi NE 3.5 mph - N/A   Clear
9:35 AM 57.2 °F - 37.4 °F 48% 30.37 in 10.0 mi Calm Calm - N/A   Clear
9:55 AM 60.8 °F - 37.4 °F 42% 30.37 in 10.0 mi North 4.6 mph - N/A   Clear
10:15 AM 60.8 °F - 37.4 °F 42% 30.36 in 10.0 mi Calm Calm - N/A   Clear
10:55 AM 64.4 °F - 37.4 °F 37% 30.35 in 10.0 mi NE 3.5 mph - N/A   Clear
11:15 AM 68.0 °F - 37.4 °F 33% 30.35 in 10.0 mi Calm Calm - N/A   Clear
11:35 AM 69.8 °F - 33.8 °F 27% 30.34 in 10.0 mi Calm Calm - N/A   Clear
11:55 AM 71.6 °F - 32.0 °F 23% 30.33 in 10.0 mi Calm Calm - N/A   Clear
12:15 PM 71.6 °F - 30.2 °F 22% 30.32 in 10.0 mi SSW 4.6 mph - N/A   Clear
12:35 PM 75.2 °F - 26.6 °F 17% 30.31 in 10.0 mi SSW 9.2 mph - N/A   Clear
12:55 PM 77.0 °F - 23.0 °F 13% 30.30 in 10.0 mi SW 12.7 mph - N/A   Clear
1:15 PM 77.0 °F - 24.8 °F 14% 30.29 in 10.0 mi NW 5.8 mph - N/A   Clear
1:35 PM 77.0 °F - 24.8 °F 14% 30.28 in 10.0 mi WSW 11.5 mph - N/A   Clear
1:55 PM 75.2 °F - 23.0 °F 14% 30.27 in 10.0 mi WNW 6.9 mph - N/A   Clear
2:15 PM 75.2 °F - 24.8 °F 15% 30.27 in 10.0 mi NNW 6.9 mph - N/A   Scattered Clouds
2:35 PM 75.2 °F - 24.8 °F 15% 30.26 in 10.0 mi SSW 16.1 mph 21.9 mph N/A   Scattered Clouds
2:55 PM 77.0 °F - 23.0 °F 13% 30.27 in 10.0 mi SSE 10.4 mph 25.3 mph N/A   Clear
3:15 PM 77.0 °F - 24.8 °F 14% 30.26 in 10.0 mi SSW 11.5 mph 17.3 mph N/A   Partly Cloudy
3:35 PM 73.4 °F - 26.6 °F 18% 30.26 in 10.0 mi SW 23.0 mph 29.9 mph N/A   Scattered Clouds
3:55 PM 73.4 °F - 26.6 °F 18% 30.28 in 10.0 mi SW 8.1 mph 23.0 mph N/A   Scattered Clouds
4:15 PM - - - N/A% 30.27 in - SSW 8.1 mph - N/A   Unknown
4:35 PM 73.4 °F - 28.4 °F 19% 30.27 in 10.0 mi SSW 10.4 mph - N/A   Scattered Clouds
4:55 PM 73.4 °F - 28.4 °F 19% 30.27 in 10.0 mi South 23.0 mph 28.8 mph N/A   Partly Cloudy
5:15 PM 71.6 °F - 28.4 °F 20% 30.27 in 10.0 mi SSW 12.7 mph 20.7 mph N/A   Clear
5:35 PM 71.6 °F - 28.4 °F 20% 30.28 in 10.0 mi WSW 15.0 mph 18.4 mph N/A   Clear
5:55 PM 71.6 °F - 30.2 °F 22% 30.28 in 10.0 mi SSW 15.0 mph 23.0 mph N/A   Clear
6:15 PM 71.6 °F - 28.4 °F 20% 30.28 in 10.0 mi SSW 12.7 mph 23.0 mph N/A   Clear
6:35 PM 69.8 °F - 28.4 °F 21% 30.27 in 10.0 mi South 12.7 mph 19.6 mph N/A   Clear
6:55 PM 71.6 °F - 28.4 °F 20% 30.27 in 10.0 mi SW 6.9 mph - N/A   Clear
7:15 PM 71.6 °F - 28.4 °F 20% 30.27 in 10.0 mi West 6.9 mph - N/A   Clear
7:35 PM 69.8 °F - 28.4 °F 21% 30.27 in 10.0 mi WSW 3.5 mph - N/A   Clear
7:55 PM 69.8 °F - 28.4 °F 21% 30.27 in 10.0 mi South 4.6 mph - N/A   Clear
8:15 PM 66.2 °F - 30.2 °F 26% 30.27 in 10.0 mi SW 5.8 mph - N/A   Clear
8:35 PM 66.2 °F - 30.2 °F 26% 30.27 in 10.0 mi Calm Calm - N/A   Clear
8:55 PM 64.4 °F - 30.2 °F 28% 30.27 in 10.0 mi North 4.6 mph - N/A   Clear
9:15 PM 60.8 °F - 35.6 °F 39% 30.28 in 10.0 mi NNW 8.1 mph - N/A   Clear
9:35 PM 60.8 °F - 30.2 °F 31% 30.28 in 10.0 mi NNW 6.9 mph - N/A   Clear
9:55 PM 60.8 °F - 30.2 °F 31% 30.29 in 10.0 mi North 6.9 mph - N/A   Clear
10:15 PM 57.2 °F - 33.8 °F 41% 30.30 in 10.0 mi North 4.6 mph - N/A   Clear
10:35 PM 55.4 °F - 33.8 °F 44% 30.30 in 10.0 mi North 9.2 mph - N/A   Clear
11:15 PM 53.6 °F - 33.8 °F 47% 30.31 in 10.0 mi NNE 6.9 mph - N/A   Clear
11:35 PM 53.6 °F - 33.8 °F 47% 30.31 in 10.0 mi North 8.1 mph - N/A   Clear
11:55 PM 53.6 °F - 33.8 °F 47% 30.31 in 10.0 mi NNE 8.1 mph - N/A   Clear